ギャラッド彗星

C/2010 H1 ( Garradd )

English version
Home page
Updated on April 6, 2013

---------------------------------------------------------------------

・ プロフィール

発見日 2010年4月16日
発見光度 18.6等
発見者 G. J. Garradd (Siding Spring Survey)

・ 軌道要素

Epoch 2010 June 13.0 TT = JDT 2455360.5
T 2010 June 18.89948 TT                                 MPC
q   2.7455428            (2000.0)            P               Q
z  +0.0001362      Peri.  233.82008     -0.71773079     +0.68407490
 +/-0.0000068      Node   347.38398     -0.27127560     -0.44666466
e   0.9996260      Incl.   36.53154     -0.64130496     -0.57665607
From 40 observations 2010 Feb. 19-July 2, mean residual 0".6.

・ 光度変化

        m1 = 12.5 + 5 logΔ + 10.0 log r

---------------------------------------------------------------------

軌道要素はM.P.E.C. 2013-B90に掲載されたものです。
光度グラフはComet for Windowsで作成したものです。

---------------------------------------------------------------------

Copyright(C) Seiichi Yoshida (comet@aerith.net). All rights reserved.